• In Belgium
  • List of Countries
  • For 7 days
  • Water Temperature
  • Satellite Maps
  • Weather Map
  • Weather Widgets
  • user-avatar
    Login

    Hourly Weather Oostende

    Today, 21 October, Sunday

    Time Temperature Precipitation Wind Pressure Humidity
    00:00 +9°C° 0 mm 2 mps 771 mmHg 76%
    01:00 +9°C° 0 mm 2 mps 771 mmHg 76%
    02:00 +9°C° 0 mm 2 mps 771 mmHg 76%
    03:00 +9°C° 0 mm 2 mps 770 mmHg 76%
    04:00 +9°C° 0 mm 2 mps 770 mmHg 76%
    05:00 +9°C° 0 mm 2 mps 770 mmHg 76%
    06:00 +9°C° 0 mm 2 mps 770 mmHg 76%
    07:00 +10°C° 0 mm 3 mps 770 mmHg 72%
    08:00 +11°C° 0 mm 3 mps 770 mmHg 68%
    09:00 +12°C° 0 mm 3 mps 770 mmHg 64%
    10:00 +15°C° 0 mm 2 mps 770 mmHg 61%
    11:00 +16°C° 0 mm 2 mps 770 mmHg 58%
    12:00 +17°C° 0 mm 2 mps 770 mmHg 55%
    13:00 +17°C° 0 mm 2 mps 769 mmHg 56%
    14:00 +18°C° 0 mm 2 mps 769 mmHg 56%
    15:00 +18°C° 0 mm 2 mps 769 mmHg 57%
    16:00 +16°C° 0 mm 2 mps 769 mmHg 64%
    17:00 +15°C° 0 mm 2 mps 769 mmHg 70%
    18:00 +14°C° 0 mm 2 mps 769 mmHg 76%
    19:00 +13°C° 0 mm 2 mps 769 mmHg 79%
    20:00 +13°C° 0 mm 2 mps 769 mmHg 81%
    21:00 +13°C° 0 mm 2 mps 769 mmHg 84%
    22:00 +12°C° 0 mm 3 mps 769 mmHg 85%
    23:00 +12°C° 0 mm 4 mps 769 mmHg 87%

    Tomorrow, 22 October, Monday

    Time Temperature Precipitation Wind Pressure Humidity
    00:00 +12°C° 0 mm 5 mps 770 mmHg 88%
    01:00 +13°C° 0.1 mm 6 mps 770 mmHg 89%
    02:00 +12°C° 0.1 mm 7 mps 770 mmHg 90%
    03:00 +13°C° 0.1 mm 8 mps 770 mmHg 90%
    04:00 +12°C° 0.3 mm 9 mps 771 mmHg 88%
    05:00 +12°C° 0.3 mm 9 mps 771 mmHg 85%
    06:00 +12°C° 0.3 mm 9 mps 772 mmHg 83%
    07:00 +12°C° 0.2 mm 9 mps 772 mmHg 80%
    08:00 +12°C° 0.2 mm 9 mps 773 mmHg 78%
    09:00 +12°C° 0.2 mm 8 mps 774 mmHg 75%
    10:00 +12°C° 0 mm 8 mps 774 mmHg 71%
    11:00 +12°C° 0 mm 8 mps 775 mmHg 67%
    12:00 +13°C° 0 mm 8 mps 775 mmHg 64%
    13:00 +12°C° 0 mm 8 mps 775 mmHg 63%
    14:00 +12°C° 0 mm 7 mps 775 mmHg 63%
    15:00 +12°C° 0 mm 7 mps 775 mmHg 63%
    16:00 +11°C° 0 mm 6 mps 775 mmHg 65%
    17:00 +10°C° 0 mm 6 mps 776 mmHg 67%
    18:00 +9°C° 0 mm 5 mps 776 mmHg 69%
    19:00 +10°C° 0 mm 4 mps 776 mmHg 68%
    20:00 +10°C° 0 mm 4 mps 776 mmHg 68%
    21:00 +10°C° 0 mm 3 mps 777 mmHg 68%
    22:00 +10°C° 0 mm 4 mps 776 mmHg 69%
    23:00 +8°C° 0 mm 4 mps 776 mmHg 71%

    Day after tomorrow, 23 October, Tuesday

    Time Temperature Precipitation Wind Pressure Humidity
    00:00 +8°C° 0 mm 4 mps 776 mmHg 73%
    01:00 +8°C° 0 mm 4 mps 776 mmHg 73%
    02:00 +8°C° 0 mm 5 mps 775 mmHg 74%
    03:00 +8°C° 0 mm 5 mps 775 mmHg 74%
    04:00 +8°C° 0 mm 6 mps 774 mmHg 76%
    05:00 +8°C° 0 mm 6 mps 774 mmHg 78%
    06:00 +8°C° 0 mm 7 mps 773 mmHg 80%
    07:00 +9°C° 0 mm 7 mps 773 mmHg 77%
    08:00 +10°C° 0 mm 7 mps 773 mmHg 75%
    09:00 +11°C° 0 mm 8 mps 773 mmHg 72%
    10:00 +12°C° 0 mm 8 mps 772 mmHg 71%
    11:00 +12°C° 0 mm 8 mps 772 mmHg 69%
    12:00 +13°C° 0 mm 8 mps 771 mmHg 67%
    13:00 +13°C° 0 mm 8 mps 771 mmHg 67%
    14:00 +13°C° 0 mm 8 mps 770 mmHg 67%
    15:00 +13°C° 0 mm 8 mps 770 mmHg 67%
    16:00 +14°C° 0 mm 7 mps 770 mmHg 70%
    17:00 +12°C° 0 mm 7 mps 770 mmHg 73%
    18:00 +12°C° 0 mm 7 mps 770 mmHg 75%
    19:00 +12°C° 0 mm 7 mps 770 mmHg 77%
    20:00 +12°C° 0 mm 7 mps 770 mmHg 79%
    21:00 +12°C° 0 mm 7 mps 770 mmHg 81%
    22:00 +12°C° 0 mm 7 mps 770 mmHg 83%
    23:00 +12°C° 0 mm 7 mps 770 mmHg 86%

    24 October, Wednesday

    Time Temperature Precipitation Wind Pressure Humidity
    00:00 +12°C° 0 mm 7 mps 770 mmHg 89%
    01:00 +12°C° 0 mm 7 mps 770 mmHg 90%
    02:00 +12°C° 0 mm 7 mps 770 mmHg 90%
    03:00 +12°C° 0 mm 7 mps 770 mmHg 91%
    04:00 +12°C° 0 mm 7 mps 770 mmHg 90%
    05:00 +12°C° 0 mm 7 mps 770 mmHg 89%
    06:00 +14°C° 0 mm 7 mps 770 mmHg 88%
    07:00 +15°C° 0 mm 6 mps 770 mmHg 86%
    08:00 +15°C° 0 mm 6 mps 770 mmHg 84%
    09:00 +16°C° 0 mm 6 mps 770 mmHg 82%
    10:00 +16°C° 0 mm 6 mps 770 mmHg 80%
    11:00 +17°C° 0 mm 6 mps 770 mmHg 79%
    12:00 +17°C° 0 mm 6 mps 771 mmHg 77%
    13:00 +17°C° 0 mm 5 mps 770 mmHg 78%
    14:00 +17°C° 0 mm 5 mps 770 mmHg 78%
    15:00 +17°C° 0 mm 5 mps 770 mmHg 79%
    16:00 +17°C° 0 mm 4 mps 770 mmHg 83%
    17:00 +15°C° 0 mm 4 mps 770 mmHg 87%
    18:00 +14°C° 0 mm 3 mps 769 mmHg 91%
    19:00 +14°C° 0 mm 3 mps 769 mmHg 92%
    20:00 +13°C° 0 mm 3 mps 769 mmHg 92%
    21:00 +13°C° 0 mm 3 mps 769 mmHg 93%
    22:00 +13°C° 0 mm 3 mps 769 mmHg 92%
    23:00 +13°C° 0 mm 3 mps 769 mmHg 92%

    25 October, Thursday

    Time Temperature Precipitation Wind Pressure Humidity
    00:00 +14°C° 0 mm 4 mps 769 mmHg 91%
    01:00 +13°C° 0 mm 4 mps 768 mmHg 92%
    02:00 +13°C° 0 mm 4 mps 768 mmHg 92%
    03:00 +12°C° 0 mm 4 mps 767 mmHg 93%
    04:00 +12°C° 0 mm 4 mps 767 mmHg 91%
    05:00 +11°C° 0 mm 4 mps 767 mmHg 90%
    06:00 +10°C° 0 mm 4 mps 766 mmHg 89%
    07:00 +11°C° 0 mm 4 mps 766 mmHg 85%
    08:00 +12°C° 0 mm 4 mps 766 mmHg 80%
    09:00 +13°C° 0 mm 4 mps 766 mmHg 76%
    10:00 +13°C° 0 mm 4 mps 766 mmHg 73%
    11:00 +14°C° 0 mm 4 mps 765 mmHg 70%
    12:00 +14°C° 0 mm 4 mps 765 mmHg 67%
    13:00 +14°C° 0 mm 3 mps 765 mmHg 67%
    14:00 +14°C° 0 mm 3 mps 764 mmHg 67%
    15:00 +14°C° 0 mm 3 mps 764 mmHg 67%
    16:00 +12°C° 0 mm 3 mps 763 mmHg 72%
    17:00 +11°C° 0 mm 3 mps 763 mmHg 76%
    18:00 +10°C° 0 mm 3 mps 763 mmHg 81%
    19:00 +10°C° 0 mm 3 mps 762 mmHg 81%
    20:00 +9°C° 0 mm 3 mps 762 mmHg 82%
    21:00 +9°C° 0 mm 3 mps 762 mmHg 83%
    22:00 +9°C° 0 mm 3 mps 761 mmHg 83%
    23:00 +9°C° 0 mm 3 mps 760 mmHg 84%

    26 October, Friday

    Time Temperature Precipitation Wind Pressure Humidity
    00:00 +8°C° 0 mm 3 mps 760 mmHg 85%
    01:00 +7°C° 0 mm 4 mps 759 mmHg 85%
    02:00 +7°C° 0 mm 4 mps 759 mmHg 85%
    03:00 +7°C° 0 mm 4 mps 758 mmHg 85%
    04:00 +8°C° 0.1 mm 4 mps 758 mmHg 83%
    05:00 +8°C° 0.1 mm 4 mps 757 mmHg 81%
    06:00 +10°C° 0.1 mm 3 mps 757 mmHg 79%
    07:00 +10°C° 0.4 mm 3 mps 756 mmHg 79%
    08:00 +11°C° 0.4 mm 3 mps 756 mmHg 79%
    09:00 +11°C° 0.4 mm 3 mps 755 mmHg 79%
    10:00 +11°C° 0.6 mm 4 mps 755 mmHg 80%
    11:00 +11°C° 0.6 mm 4 mps 754 mmHg 80%
    12:00 +11°C° 0.6 mm 4 mps 754 mmHg 81%
    13:00 +10°C° 0.4 mm 5 mps 754 mmHg 82%
    14:00 +9°C° 0.4 mm 5 mps 753 mmHg 83%
    15:00 +9°C° 0.4 mm 5 mps 753 mmHg 84%
    16:00 +9°C° 0.6 mm 5 mps 753 mmHg 85%
    17:00 +9°C° 0.6 mm 6 mps 753 mmHg 87%
    18:00 +8°C° 0.6 mm 7 mps 753 mmHg 88%
    19:00 +8°C° 0.6 mm 7 mps 753 mmHg 86%
    20:00 +8°C° 0.6 mm 7 mps 753 mmHg 85%
    21:00 +8°C° 0.6 mm 7 mps 753 mmHg 83%
    22:00 +8°C° 0.6 mm 7 mps 753 mmHg 82%
    23:00 +8°C° 0.6 mm 6 mps 753 mmHg 81%
    Show more